FW0655 Weather Reports


Display with metric or nautical units.
time (UTC)temp
F
wind
direction
speed
MPH
gust
MPH
rain 1hr
in
rain 24hr
in
rain mn
in
humidity
%
barometer
mb
20260902084544 66 56 0.0 1.0 0.00 0.87 0.00 93 1015.8
20260902083038 66 56 1.0 3.0 0.00 0.87 0.00 93 1015.8
20260902081524 66 56 0.0 2.0 0.00 0.87 0.00 93 1015.6
20260902080023 67 56 0.0 0.0 0.00 0.87 0.00 93 1015.2
20260902074523 67 56 0.0 1.0 0.00 0.90 0.00 93 1015.4
20260902073020 67 56 0.0 2.0 0.00 0.90 0.00 93 1015.4
20260902071523 67 56 1.0 2.0 0.00 0.90 0.00 93 1015.3
20260902070021 68 56 0.0 2.0 0.00 0.90 0.00 93 1015.5
20260902064517 68 56 0.0 2.0 0.00 0.90 0.00 93 1015.8
20260902063022 68 56 1.0 2.0 0.00 0.90 0.00 92 1015.6
20260902061534 68 56 0.0 1.0 0.00 0.90 0.00 92 1015.7
20260902060016 68 56 0.0 1.0 0.00 0.90 0.00 92 1015.7
20260902054511 68 56 0.0 0.0 0.00 0.90 0.00 92 1015.5
20260902053016 69 56 0.0 2.0 0.00 0.90 0.00 92 1015.4
20260902051508 69 56 0.0 2.0 0.00 0.90 0.00 92 1015.4
20260902050008 70 56 0.0 2.0 0.00 0.90 0.00 92 1015.4
20260902044505 70 56 0.0 2.0 0.00 0.90 0.00 92 1015.6
20260902043004 70 56 2.0 3.0 0.00 0.90 0.00 92 1015.4
20260902041601 71 55 0.0 3.0 0.00 0.90 0.00 92 1015.1
20260902040110 71 55 0.0 0.0 0.00 0.90 0.00 92 1014.8
20260902034605 71 55 0.0 0.0 0.00 0.90 0.90 92 1014.9
20260902033107 71 55 0.0 1.0 0.00 0.90 0.90 91 1014.8
20260902031556 71 55 0.0 2.0 0.00 0.90 0.90 91 1014.6
20260902030056 71 55 0.0 2.0 0.00 0.90 0.90 91 1014.6
20260902024608 72 55 0.0 0.0 0.00 0.90 0.90 91 1014.3
20260902023104 72 55 0.0 2.0 0.00 0.90 0.90 90 1014.4
20260902021557 73 55 0.0 1.0 0.00 0.90 0.90 90 1014.5
20260902020107 73 55 0.0 1.0 0.00 0.90 0.90 90 1014.5
20260902014555 73 55 0.0 2.0 0.00 0.91 0.90 90 1014.4
20260902013056 73 55 0.0 3.0 0.00 0.91 0.90 90 1014.2
20260902011553 74 55 2.0 3.0 0.00 0.91 0.90 90 1014.0
20260902010054 74 55 0.0 3.0 0.00 0.91 0.90 89 1014.2
20260902004552 75 30 2.0 5.0 0.00 0.92 0.90 88 1013.9
20260902003052 75 29 0.0 3.0 0.00 0.92 0.90 88 1013.6
20260902001552 76 29 0.0 1.0 0.00 0.92 0.90 87 1013.3
20260902000053 76 29 0.0 1.0 0.00 0.92 0.90 86 1013.1
20260901234549 77 29 0.0 1.0 0.00 0.92 0.90 85 1013.2
20260901233050 78 29 0.0 2.0 0.00 0.92 0.90 83 1013.4
20260901231549 79 29 0.0 2.0 0.00 0.92 0.90 83 1013.2
20260901230051 79 29 0.0 1.0 0.00 0.92 0.90 82 1012.8
20260901224548 80 29 0.0 2.0 0.00 0.95 0.90 81 1013.0
20260901223050 80 29 0.0 1.0 0.00 0.95 0.90 80 1012.9
20260901221547 80 29 2.0 4.0 0.00 0.95 0.90 78 1012.8
20260901220048 80 29 1.0 3.0 0.00 0.95 0.90 78 1013.1
20260901214547 80 29 0.0 4.0 0.00 0.97 0.90 79 1013.0
20260901213108 80 29 2.0 5.0 0.00 0.97 0.90 79 1012.9
20260901211545 80 26 3.0 6.0 0.00 0.97 0.90 78 1012.9
20260901210045 80 23 2.0 6.0 0.00 0.97 0.90 78 1012.6
20260901204548 81 13 1.0 4.0 0.00 0.99 0.90 78 1012.5
20260901203042 82 12 3.0 5.0 0.00 0.99 0.90 76 1013.0
20260901201541 83 325 1.0 3.0 0.00 0.99 0.90 75 1012.8
20260901200040 83 325 0.0 3.0 0.00 0.99 0.90 77 1013.1
20260901194535 82 293 0.0 3.0 0.00 1.05 0.90 78 1013.1
20260901193033 81 172 0.0 4.0 0.00 1.05 0.90 81 1013.2
20260901191529 79 192 1.0 5.0 0.00 1.05 0.90 87 1013.2
20260901190025 78 222 0.0 3.0 0.00 1.05 0.90 91 1013.3
20260901184526 77 297 0.0 4.0 0.00 1.07 0.90 93 1013.2
20260901183019 76 206 1.0 3.0 0.00 1.07 0.90 95 1013.2
20260901181517 76 5 1.0 3.0 0.00 1.07 0.90 95 1012.9
20260901180016 75 5 0.0 2.0 0.00 1.07 0.90 95 1013.0
20260901174512 74 5 0.0 1.0 0.00 1.13 0.90 96 1013.0
20260901173009 72 5 0.0 2.0 0.00 1.13 0.90 95 1013.1
20260901171512 72 5 0.0 2.0 0.00 1.13 0.90 95 1013.1
20260901170007 71 5 1.0 3.0 0.00 1.25 0.90 95 1013.0
20260901164504 71 5 1.0 3.0 0.00 1.25 0.90 95 1013.1
20260901163003 71 5 0.0 4.0 0.00 1.25 0.90 95 1013.1
20260901161502 71 5 2.0 4.0 0.00 1.25 0.90 95 1013.3
20260901160100 71 5 1.0 4.0 0.00 1.25 0.90 95 1013.3
20260901154600 71 5 2.0 3.0 0.00 1.29 0.90 95 1013.4
20260901153101 70 5 1.0 2.0 0.00 1.29 0.90 95 1013.4
20260901151557 70 5 1.0 4.0 0.00 1.29 0.90 95 1013.4
20260901144556 70 5 0.0 3.0 0.07 1.29 0.90 95 1013.3
20260901143105 70 5 1.0 6.0 0.23 1.29 0.90 95 1013.4
20260901141553 69 200 5.0 11.0 0.23 1.29 0.90 95 1013.5
20260901140053 68 20 0.0 2.0 0.21 1.25 0.86 95 1013.9
20260901134616 68 20 1.0 5.0 0.30 1.22 0.83 95 1013.7
20260901133057 69 20 2.0 5.0 0.40 1.06 0.67 95 1013.8
20260901131547 68 171 1.0 4.0 0.49 1.06 0.67 95 1013.9
20260901130046 68 182 0.0 4.0 0.57 1.03 0.64 95 1014.1
20260901124553 67 294 3.0 4.0 0.46 0.91 0.52 95 1014.0
20260901123045 67 16 0.0 5.0 0.22 0.66 0.27 95 1014.4
20260901121545 67 37 2.0 6.0 0.12 0.56 0.17 95 1014.7
20260901120041 67 24 3.0 5.0 0.02 0.45 0.06 95 1014.3
20260901114553 67 24 3.0 6.0 0.02 0.45 0.06 95 1013.9
20260901113039 66 29 0.0 5.0 0.01 0.44 0.05 95 1014.0
20260901111540 66 150 2.0 5.0 0.01 0.44 0.05 94 1013.4
20260901110040 66 150 0.0 3.0 0.00 0.43 0.04 95 1013.3
20260901104536 66 150 0.0 1.0 0.00 0.43 0.04 95 1013.5
20260901103035 66 150 0.0 1.0 0.00 0.43 0.04 94 1013.9
20260901101534 66 150 0.0 0.0 0.00 0.43 0.04 94 1013.6
20260901100039 66 150 0.0 0.0 0.00 0.43 0.04 94 1013.6
20260901094534 66 150 0.0 3.0 0.00 0.43 0.04 94 1013.7
20260901093034 65 150 0.0 1.0 0.00 0.43 0.04 94 1013.6
20260901091532 65 150 1.0 2.0 0.00 0.43 0.04 94 1014.0
20260901090030 65 150 0.0 2.0 0.01 0.43 0.04 94 1014.0